"Pseudo-MPEC" for C1H7372

Created 2019 Dec 6 14:07:06 UT using Find_Orb

Click here for an explanation of pseudo-MPECs

 
 Astrometry: 
     C1H7372  C2019 12 02.14725 00 25 29.19 +30 18 06.6    ~C257 21.7 GVNEOCPG96
     C1H7372  C2019 12 02.15251 00 25 30.61 +30 18 13.8    ~C257 21.4 GVNEOCPG96
     C1H7372  C2019 12 02.15775 00 25 31.98 +30 18 20.6    ~C257 21.5 GVNEOCPG96
     C1H7372  C2019 12 02.16299 00 25 33.37 +30 18 27.5    ~C257 21.1 GVNEOCPG96
     C1H7372  C2019 12 02.27641 00 26 04.38 +30 20 44.8    ~C277 21.9 GVNEOCPV06
     C1H7372  C2019 12 02.27878 00 26 05.04 +30 20 47.4    ~C277 22.3 GVNEOCPV06
     C1H7372  C2019 12 02.28116 00 26 05.73 +30 20 49.7    ~C277 21.4 GVNEOCPV06
     C1H7372  C2019 12 02.28354 00 26 06.43 +30 20 52.7    ~C277 21.9 GVNEOCPV06
     C1H7372  C2019 12 06.18642 00 43 48.90 +31 31 04.3    ~C65M 21.8 GVNEOCPG96
     C1H7372  C2019 12 06.19103 00 43 49.81 +31 31 08.0    ~C65M 21.8 GVNEOCPG96
     C1H7372  C2019 12 06.19734 00 43 51.00 +31 31 12.9    ~C65M 22.8 GVNEOCPG96
     C1H7372  C2019 12 06.20534 00 43 52.63 +31 31 17.8    ~C65M 21.7 GVNEOCPG96

Station data:
(G96) Mt. Lemmon Survey  (N32.442754 W110.788720)  US/Arizona.  Observers T.
   A. Pruyne, B. M. Africano, E. J. Christensen, G. A. Farneth, D. C. Fuls,
   A. R. Gibbs, A. D. Grauer, H. Gröller, J. A. Johnson, R. A. Kowalski, S.
   M. Larson, G. J. Leonard, D. Rankin, R. L. Seaman, F. C. Shelly. 1.5-m
   reflector + 10K CCD.
(V06) Catalina Sky Survey-Kuiper  (N32.416847 W110.732550)  US/Arizona.
   Observers T. A. Pruyne, B. M. Africano, E. J. Christensen, G. A. Farneth,
   D. C. Fuls, A. R. Gibbs, A. D. Grauer, H. Gröller, J. A. Johnson, R. A.
   Kowalski, S. M. Larson, G. J. Leonard, D. Rankin, R. L. Seaman, F. C.
   Shelly. 1.55-m reflector + CCD.

Orbital elements:  C1H7372
   Perihelion 2019 Aug 19.712973 +/- 0.396 TT = 17:06:40 (JD 2458715.212973)
Epoch 2019 Dec  6.0 TT = JDT 2458823.5   Earth MOID: 0.0073   Ve: 0.0366
M 121.80247943 +/- 1.1              (J2000 ecliptic)          AutoNEOCP
n   1.12481136 +/- 0.00706          Peri.  241.31397 +/- 1.4
a   0.91569234 +/- 0.00383          Node    49.80691 +/- 0.6
e   0.2029523 +/- 0.000896          Incl.    5.60176 +/- 0.051
P   0.88/320.05d           H 25.8   G  0.15   U  9.4  
q 0.72985041 +/- 0.00314    Q 1.10153428 +/- 0.00473
From 12 observations 2019 Dec. 2-6; mean residual 0".21
Residuals in arcseconds: 
191202 G96  .03+  .02+    191202 V06  .05-  .14+    191206 G96  .03+  .20-    
191202 G96  .27+  .09+    191202 V06  .21-  .13+    191206 G96  .15+  .12+    
191202 G96  .07-  .16-    191202 V06  .05-  .18-    191206 G96  .45-  .44+    
191202 G96  .16-  .24-    191202 V06  .23+  .21+    191206 G96  .27+  .37-    

Ephemerides (geocentric):
Date (UTC) HH   RA              Dec         delta   r     elong  mag " sig PA
---- -- -- --  -------------   -----------  ------ ------ -----  --- ---- ---
2019 12 06 14  00 45 23.527   +31 36 32.83  .08693 1.0381 125.4 22.4 5.48  73
2019 12 06 15  00 45 33.088   +31 37 06.06  .08710 1.0382 125.4 22.4 6.23  73
2019 12 06 16  00 45 42.625   +31 37 39.13  .08727 1.0383 125.4 22.5 6.99  73
2019 12 06 17  00 45 52.139   +31 38 12.04  .08744 1.0384 125.4 22.5 7.76  74
2019 12 06 18  00 46 01.628   +31 38 44.81  .08761 1.0385 125.4 22.5 8.53  74
2019 12 06 19  00 46 11.094   +31 39 17.42  .08778 1.0386 125.4 22.5 9.31  74
2019 12 06 20  00 46 20.535   +31 39 49.88  .08796 1.0387 125.4 22.5 10.1  74
2019 12 06 21  00 46 29.954   +31 40 22.19  .08813 1.0388 125.4 22.5 10.9  74
2019 12 06 22  00 46 39.349   +31 40 54.35  .08830 1.0389 125.4 22.5 11.7  74
2019 12 06 23  00 46 48.721   +31 41 26.37  .08847 1.0390 125.4 22.5 12.5  74
2019 12 07 00  00 46 58.070   +31 41 58.23  .08864 1.0391 125.4 22.5 13.3  74
2019 12 07 01  00 47 07.395   +31 42 29.95  .08882 1.0392 125.4 22.5 14.1  74
2019 12 07 02  00 47 16.698   +31 43 01.53  .08899 1.0393 125.4 22.5 15.0  74
2019 12 07 03  00 47 25.979   +31 43 32.96  .08916 1.0394 125.4 22.5 15.8  74
2019 12 07 04  00 47 35.237   +31 44 04.25  .08933 1.0395 125.4 22.5 16.7  74
2019 12 07 05  00 47 44.472   +31 44 35.39  .08950 1.0396 125.4 22.5 17.5  74
2019 12 07 06  00 47 53.685   +31 45 06.40  .08968 1.0397 125.4 22.5 18.4  75
2019 12 07 07  00 48 02.876   +31 45 37.26  .08985 1.0398 125.4 22.5 19.2  75
2019 12 07 08  00 48 12.045   +31 46 07.99  .09002 1.0399 125.4 22.5 20.1  75
2019 12 07 09  00 48 21.192   +31 46 38.57  .09019 1.0400 125.4 22.5 21.0  75
2019 12 07 10  00 48 30.318   +31 47 09.02  .09037 1.0401 125.4 22.5 21.9  75
2019 12 07 11  00 48 39.421   +31 47 39.33  .09054 1.0402 125.4 22.5 22.7  75
2019 12 07 12  00 48 48.504   +31 48 09.51  .09071 1.0403 125.4 22.5 23.6  75
2019 12 07 13  00 48 57.564   +31 48 39.55  .09088 1.0404 125.4 22.5 24.5  75
2019 12 07 14  00 49 06.604   +31 49 09.46  .09105 1.0405 125.4 22.5 25.4  75
2019 12 07 15  00 49 15.623   +31 49 39.23  .09123 1.0406 125.4 22.5 26.4  75
2019 12 07 16  00 49 24.620   +31 50 08.87  .09140 1.0407 125.4 22.6 27.3  75
2019 12 07 17  00 49 33.597   +31 50 38.38  .09157 1.0408 125.4 22.6 28.2  75
2019 12 07 18  00 49 42.552   +31 51 07.76  .09174 1.0409 125.4 22.6 29.1  75
2019 12 07 19  00 49 51.488   +31 51 37.01  .09192 1.0410 125.4 22.6 30.1  75
2019 12 07 20  00 50 00.402   +31 52 06.13  .09209 1.0411 125.4 22.6 31.0  75
2019 12 07 21  00 50 09.297   +31 52 35.12  .09226 1.0412 125.3 22.6 31.9  75
2019 12 07 22  00 50 18.171   +31 53 03.99  .09244 1.0413 125.3 22.6 32.9  75
2019 12 07 23  00 50 27.025   +31 53 32.73  .09261 1.0414 125.3 22.6 33.8  75
2019 12 08 00  00 50 35.859   +31 54 01.34  .09278 1.0415 125.3 22.6 34.8  75
2019 12 08 01  00 50 44.673   +31 54 29.83  .09295 1.0416 125.3 22.6 35.8  75
2019 12 08 02  00 50 53.467   +31 54 58.19  .09313 1.0417 125.3 22.6 36.7  75
2019 12 08 03  00 51 02.241   +31 55 26.43  .09330 1.0418 125.3 22.6 37.7  75
2019 12 08 04  00 51 10.996   +31 55 54.54  .09347 1.0419 125.3 22.6 38.7  75
2019 12 08 05  00 51 19.731   +31 56 22.54  .09365 1.0420 125.3 22.6 39.7  75
2019 12 08 06  00 51 28.447   +31 56 50.41  .09382 1.0421 125.3 22.6 40.6  75
2019 12 08 07  00 51 37.144   +31 57 18.17  .09399 1.0422 125.3 22.6 41.6  75
2019 12 08 08  00 51 45.822   +31 57 45.80  .09416 1.0423 125.3 22.6 42.6  75
2019 12 08 09  00 51 54.480   +31 58 13.32  .09434 1.0424 125.3 22.6 43.6  75
2019 12 08 10  00 52 03.120   +31 58 40.71  .09451 1.0425 125.3 22.6 44.6  75
2019 12 08 11  00 52 11.741   +31 59 07.99  .09468 1.0426 125.3 22.6 45.7  75
2019 12 08 12  00 52 20.343   +31 59 35.15  .09486 1.0427 125.3 22.6 46.7  75
2019 12 08 13  00 52 28.927   +32 00 02.20  .09503 1.0428 125.3 22.6 47.7  76